Time,TemperatureF,DewpointF,PressureIn,WindDirection,WindDirectionDegrees,WindSpeedMPH,WindSpeedGustMPH,Humidity,HourlyPrecipIn,Conditions,Clouds,dailyrainin,SoftwareType,DateUTC
2013-07-04 00:01:00,70.5,63.3,30.10,SSE,155,0.0,0.0,78,0.00,BKN,,0.00,WeatherDisplay:10.37,2013-07-04 04:01:00,
2013-07-04 00:06:00,70.7,63.5,30.11,South,177,0.0,0.0,78,0.00,BKN,,0.00,WeatherDisplay:10.37,2013-07-04 04:06:00,
2013-07-04 00:11:00,70.7,63.5,30.11,SSE,155,0.0,0.0,78,0.00,OVC,,0.00,WeatherDisplay:10.37,2013-07-04 04:11:00,
2013-07-04 00:16:00,70.9,63.7,30.11,SSW,199,0.0,0.7,78,0.00,OVC,,0.00,WeatherDisplay:10.37,2013-07-04 04:16:00,
2013-07-04 00:21:00,70.9,64.0,30.10,SSE,155,0.8,2.3,79,0.00,OVC,,0.00,WeatherDisplay:10.37,2013-07-04 04:21:00,
2013-07-04 00:26:00,70.9,64.0,30.10,South,177,0.7,1.1,79,0.00,OVC,,0.00,WeatherDisplay:10.37,2013-07-04 04:26:00,
2013-07-04 00:31:00,70.9,64.0,30.11,SW,222,1.8,2.3,79,0.00,OVC,,0.00,WeatherDisplay:10.37,2013-07-04 04:31:00,
2013-07-04 00:36:00,70.9,64.4,30.11,SSW,199,1.4,2.3,80,0.00,OVC,,0.00,WeatherDisplay:10.37,2013-07-04 04:36:00,
2013-07-04 00:41:00,70.9,64.8,30.11,West,267,0.0,2.3,81,0.00,OVC,,0.00,WeatherDisplay:10.37,2013-07-04 04:41:00,
2013-07-04 00:46:00,70.9,64.8,30.11,SE,132,1.3,2.9,81,0.00,OVC,,0.00,WeatherDisplay:10.37,2013-07-04 04:46:00,
2013-07-04 00:51:00,70.9,64.8,30.11,South,177,1.0,1.1,81,0.00,OVC,,0.00,WeatherDisplay:10.37,2013-07-04 04:51:00,
2013-07-04 00:56:00,70.9,64.8,30.11,SSW,199,1.6,1.6,81,0.00,OVC,,0.00,WeatherDisplay:10.37,2013-07-04 04:56:00,
2013-07-04 01:01:00,70.7,64.6,30.11,WSW,245,0.2,0.0,81,0.00,OVC,,0.00,WeatherDisplay:10.37,2013-07-04 05:01:00,
2013-07-04 01:06:00,70.5,64.4,30.10,South,177,5.4,5.8,81,0.00,OVC,,0.00,WeatherDisplay:10.37,2013-07-04 05:06:00,
2013-07-04 01:11:00,70.5,64.8,30.10,WSW,245,0.0,0.0,82,0.00,BKN,,0.00,WeatherDisplay:10.37,2013-07-04 05:11:00,
2013-07-04 01:16:00,70.3,64.6,30.10,WSW,245,0.0,0.0,82,0.00,BKN,,0.00,WeatherDisplay:10.37,2013-07-04 05:16:00,
2013-07-04 01:21:00,70.3,64.6,30.10,SSE,155,1.7,3.5,82,0.00,BKN,,0.00,WeatherDisplay:10.37,2013-07-04 05:21:00,
2013-07-04 01:26:00,70.3,64.6,30.10,SSE,155,1.8,2.3,82,0.00,BKN,,0.00,WeatherDisplay:10.37,2013-07-04 05:26:00,
2013-07-04 01:31:00,70.3,64.2,30.10,SE,132,0.0,0.0,81,0.00,BKN,,0.00,WeatherDisplay:10.37,2013-07-04 05:31:00,
2013-07-04 01:36:00,70.2,64.4,30.10,SE,132,0.0,0.0,82,0.00,BKN,,0.00,WeatherDisplay:10.37,2013-07-04 05:36:00,
2013-07-04 01:41:00,70.2,64.4,30.10,SE,132,2.0,2.3,82,0.00,BKN,,0.00,WeatherDisplay:10.37,2013-07-04 05:41:00,
2013-07-04 01:46:00,70.0,64.2,30.10,WSW,245,0.0,0.0,82,0.00,BKN,,0.00,WeatherDisplay:10.37,2013-07-04 05:46:00,
2013-07-04 01:51:00,70.0,64.2,30.10,South,177,0.0,0.0,82,0.00,BKN,,0.00,WeatherDisplay:10.37,2013-07-04 05:51:00,
2013-07-04 01:56:00,69.8,64.1,30.10,SE,132,1.2,4.6,82,0.00,BKN,,0.00,WeatherDisplay:10.37,2013-07-04 05:56:00,
2013-07-04 02:01:00,69.8,64.1,30.10,SSE,155,1.4,1.4,82,0.00,BKN,,0.00,WeatherDisplay:10.37,2013-07-04 06:01:00,
2013-07-04 02:06:00,69.6,63.9,30.10,South,177,2.8,3.5,82,0.00,BKN,,0.00,WeatherDisplay:10.37,2013-07-04 06:06:00,
2013-07-04 02:11:00,69.6,63.9,30.10,South,177,0.0,0.0,82,0.00,CLR,,0.00,WeatherDisplay:10.37,2013-07-04 06:11:00,
2013-07-04 02:16:00,69.6,64.2,30.09,SSW,199,0.0,0.0,83,0.00,CLR,,0.00,WeatherDisplay:10.37,2013-07-04 06:16:00,
2013-07-04 02:21:00,69.4,64.0,30.10,SSE,155,3.0,4.6,83,0.00,CLR,,0.00,WeatherDisplay:10.37,2013-07-04 06:21:00,
2013-07-04 02:26:00,69.4,64.0,30.09,SE,132,0.0,0.0,83,0.00,CLR,,0.00,WeatherDisplay:10.37,2013-07-04 06:26:00,
2013-07-04 02:31:00,69.4,64.0,30.09,SSW,199,0.0,0.0,83,0.00,CLR,,0.00,WeatherDisplay:10.37,2013-07-04 06:31:00,
2013-07-04 02:36:00,69.4,64.0,30.10,South,177,0.0,0.0,83,0.00,CLR,,0.00,WeatherDisplay:10.37,2013-07-04 06:36:00,
2013-07-04 02:41:00,69.4,64.0,30.09,South,177,0.0,0.0,83,0.00,CLR,,0.00,WeatherDisplay:10.37,2013-07-04 06:41:00,
2013-07-04 02:46:00,69.3,64.2,30.09,South,177,0.0,0.0,84,0.00,CLR,,0.00,WeatherDisplay:10.37,2013-07-04 06:46:00,
2013-07-04 02:51:00,69.1,64.0,30.08,SSE,155,0.3,1.1,84,0.00,CLR,,0.00,WeatherDisplay:10.37,2013-07-04 06:51:00,
2013-07-04 02:56:00,69.1,64.0,30.08,SSE,155,0.0,0.0,84,0.00,CLR,,0.00,WeatherDisplay:10.37,2013-07-04 06:56:00,
2013-07-04 03:01:00,69.1,63.7,30.08,SSW,199,0.0,0.0,83,0.00,CLR,,0.00,WeatherDisplay:10.37,2013-07-04 07:01:00,
2013-07-04 03:06:00,69.1,63.7,30.08,SSE,155,0.0,0.0,83,0.00,CLR,,0.00,WeatherDisplay:10.37,2013-07-04 07:06:00,
2013-07-04 03:11:00,68.9,63.5,30.09,SSW,199,3.4,3.5,83,0.00,BKN,,0.00,WeatherDisplay:10.37,2013-07-04 07:11:00,
2013-07-04 03:16:00,68.9,63.5,30.09,SSW,199,4.3,4.6,83,0.00,BKN,,0.00,WeatherDisplay:10.37,2013-07-04 07:16:00,
2013-07-04 03:21:00,68.9,63.5,30.09,NE,42,0.0,0.0,83,0.00,BKN,,0.00,WeatherDisplay:10.37,2013-07-04 07:21:00,
2013-07-04 03:26:00,68.9,63.5,30.09,SSE,155,2.2,2.3,83,0.00,BKN,,0.00,WeatherDisplay:10.37,2013-07-04 07:26:00,
2013-07-04 03:31:00,68.7,63.7,30.09,WSW,245,0.0,0.0,84,0.00,BKN,,0.00,WeatherDisplay:10.37,2013-07-04 07:31:00,
2013-07-04 03:36:00,68.7,63.7,30.09,SSE,155,0.0,0.0,84,0.00,BKN,,0.00,WeatherDisplay:10.37,2013-07-04 07:36:00,
2013-07-04 03:41:00,68.7,63.7,30.09,SE,132,0.0,0.0,84,0.00,BKN,,0.00,WeatherDisplay:10.37,2013-07-04 07:41:00,
2013-07-04 03:46:00,68.7,63.7,30.09,SSE,155,1.3,1.3,84,0.00,BKN,,0.00,WeatherDisplay:10.37,2013-07-04 07:46:00,
2013-07-04 03:51:00,68.7,63.7,30.09,South,177,2.4,2.4,84,0.00,BKN,,0.00,WeatherDisplay:10.37,2013-07-04 07:51:00,
2013-07-04 03:56:00,68.5,63.2,30.08,SE,132,0.0,0.0,83,0.00,BKN,,0.00,WeatherDisplay:10.37,2013-07-04 07:56:00,
2013-07-04 04:01:00,68.5,63.2,30.09,SE,132,0.0,0.0,83,0.00,BKN,,0.00,WeatherDisplay:10.37,2013-07-04 08:01:00,
2013-07-04 04:06:00,68.5,63.2,30.09,SE,132,0.0,0.0,83,0.00,BKN,,0.00,WeatherDisplay:10.37,2013-07-04 08:06:00,
2013-07-04 04:11:00,68.5,63.2,30.09,ESE,109,0.0,0.0,83,0.00,BKN,,0.00,WeatherDisplay:10.37,2013-07-04 08:11:00,
2013-07-04 04:16:00,68.4,63.0,30.09,SE,132,0.0,0.0,83,0.00,BKN,,0.00,WeatherDisplay:10.37,2013-07-04 08:16:00,
2013-07-04 04:21:00,68.4,63.3,30.09,South,177,1.1,1.1,84,0.00,BKN,,0.00,WeatherDisplay:10.37,2013-07-04 08:21:00,
2013-07-04 04:26:00,68.2,63.2,30.09,ESE,109,0.0,0.0,84,0.00,BKN,,0.00,WeatherDisplay:10.37,2013-07-04 08:26:00,
2013-07-04 04:31:00,68.2,63.2,30.09,SSE,155,0.0,0.0,84,0.00,BKN,,0.00,WeatherDisplay:10.37,2013-07-04 08:31:00,
2013-07-04 04:36:00,68.2,63.2,30.09,SE,132,0.0,0.0,84,0.00,BKN,,0.00,WeatherDisplay:10.37,2013-07-04 08:36:00,
2013-07-04 04:41:00,68.2,63.2,30.09,South,177,0.0,0.0,84,0.00,BKN,,0.00,WeatherDisplay:10.37,2013-07-04 08:41:00,
2013-07-04 04:46:00,68.2,63.2,30.09,SSE,155,0.0,0.0,84,0.00,BKN,,0.00,WeatherDisplay:10.37,2013-07-04 08:46:00,
2013-07-04 04:51:00,68.2,63.5,30.09,SW,222,0.0,0.0,85,0.00,BKN,,0.00,WeatherDisplay:10.37,2013-07-04 08:51:00,
2013-07-04 04:56:00,68.2,63.5,30.09,South,177,0.0,0.0,85,0.00,BKN,,0.00,WeatherDisplay:10.37,2013-07-04 08:56:00,
2013-07-04 05:01:00,68.2,63.2,30.09,SE,132,0.0,0.0,84,0.00,BKN,,0.00,WeatherDisplay:10.37,2013-07-04 09:01:00,
2013-07-04 05:06:00,68.2,63.2,30.09,SSE,155,1.4,1.6,84,0.00,BKN,,0.00,WeatherDisplay:10.37,2013-07-04 09:06:00,
2013-07-04 05:11:00,68.2,63.2,30.09,WSW,245,0.0,0.0,84,0.00,BKN,,0.00,WeatherDisplay:10.37,2013-07-04 09:11:00,
2013-07-04 05:16:00,68.2,63.5,30.09,SE,132,0.0,0.0,85,0.00,BKN,,0.00,WeatherDisplay:10.37,2013-07-04 09:16:00,
2013-07-04 05:21:00,68.2,63.5,30.09,South,177,0.0,0.0,85,0.00,BKN,,0.00,WeatherDisplay:10.37,2013-07-04 09:21:00,
2013-07-04 05:26:00,68.2,63.2,30.09,South,177,2.2,2.3,84,0.00,BKN,,0.00,WeatherDisplay:10.37,2013-07-04 09:26:00,
2013-07-04 05:31:00,68.2,63.2,30.09,SE,132,1.9,2.3,84,0.00,BKN,,0.00,WeatherDisplay:10.37,2013-07-04 09:31:00,
2013-07-04 05:36:00,68.2,63.2,30.09,SE,132,0.0,2.3,84,0.00,BKN,,0.00,WeatherDisplay:10.37,2013-07-04 09:36:00,
2013-07-04 05:41:00,68.2,63.2,30.09,SSE,155,5.4,5.8,84,0.00,BKN,,0.00,WeatherDisplay:10.37,2013-07-04 09:41:00,
2013-07-04 05:46:00,68.2,63.2,30.10,SSE,155,3.1,3.5,84,0.00,BKN,,0.00,WeatherDisplay:10.37,2013-07-04 09:46:00,
2013-07-04 05:51:00,68.2,63.2,30.10,SSE,155,0.7,1.1,84,0.00,BKN,,0.00,WeatherDisplay:10.37,2013-07-04 09:51:00,
2013-07-04 05:56:00,68.2,63.5,30.10,South,177,5.4,5.8,85,0.02,RA,,0.02,WeatherDisplay:10.37,2013-07-04 09:56:00,
2013-07-04 06:01:00,68.0,63.3,30.10,SE,132,1.2,1.2,85,0.10,RA,,0.18,WeatherDisplay:10.37,2013-07-04 10:01:00,
2013-07-04 06:06:00,67.8,63.1,30.11,South,177,4.5,4.6,85,0.26,RA,,0.26,WeatherDisplay:10.37,2013-07-04 10:06:00,
2013-07-04 06:11:00,67.8,63.1,30.11,SSW,199,2.5,2.5,85,0.26,-RA,,0.26,WeatherDisplay:10.37,2013-07-04 10:11:00,
2013-07-04 06:16:00,67.8,63.1,30.10,South,177,1.4,2.3,85,0.30,-RA,,0.30,WeatherDisplay:10.37,2013-07-04 10:16:00,
2013-07-04 06:21:00,67.8,63.1,30.11,SSW,199,2.0,2.3,85,0.35,-RA,,0.35,WeatherDisplay:10.37,2013-07-04 10:21:00,
2013-07-04 06:26:00,67.8,63.1,30.10,SW,222,0.9,1.1,85,0.41,-RA,,0.41,WeatherDisplay:10.37,2013-07-04 10:26:00,
2013-07-04 06:31:00,67.6,63.0,30.10,SSW,199,0.0,0.0,85,0.41,-RA,,0.45,WeatherDisplay:10.37,2013-07-04 10:31:00,
2013-07-04 06:36:00,67.8,63.1,30.11,SSW,199,1.6,1.6,85,0.45,-RA,,0.45,WeatherDisplay:10.37,2013-07-04 10:36:00,
2013-07-04 06:41:00,67.6,63.0,30.10,SSW,199,0.0,0.0,85,0.45,-RA,,0.45,WeatherDisplay:10.37,2013-07-04 10:41:00,
2013-07-04 06:46:00,67.6,63.0,30.10,SSE,155,0.4,1.1,85,0.45,-RA,,0.45,WeatherDisplay:10.37,2013-07-04 10:46:00,
2013-07-04 06:51:00,67.6,63.0,30.11,SW,222,1.2,1.3,85,0.47,-RA,,0.47,WeatherDisplay:10.37,2013-07-04 10:51:00,
2013-07-04 06:56:00,67.6,63.0,30.11,WSW,245,0.0,0.0,85,0.45,-RA,,0.47,WeatherDisplay:10.37,2013-07-04 10:56:00,
2013-07-04 07:01:00,67.6,63.0,30.11,West,267,0.0,0.0,85,0.37,-RA,,0.47,WeatherDisplay:10.37,2013-07-04 11:01:00,
2013-07-04 07:06:00,67.6,63.0,30.11,SW,222,0.0,0.0,85,0.28,-RA,,0.55,WeatherDisplay:10.37,2013-07-04 11:06:00,
2013-07-04 07:11:00,67.6,63.0,30.11,SE,132,0.0,0.0,85,0.28,-RA,,0.55,WeatherDisplay:10.37,2013-07-04 11:11:00,
2013-07-04 07:16:00,67.6,63.3,30.11,SE,132,0.0,0.0,86,0.32,-RA,,0.63,WeatherDisplay:10.37,2013-07-04 11:16:00,
2013-07-04 07:21:00,67.6,63.3,30.11,SE,132,0.0,0.0,86,0.28,-RA,,0.63,WeatherDisplay:10.37,2013-07-04 11:21:00,
2013-07-04 07:26:00,67.6,63.3,30.11,SSE,155,0.0,0.0,86,0.26,-RA,,0.67,WeatherDisplay:10.37,2013-07-04 11:26:00,
2013-07-04 07:31:00,67.6,63.3,30.11,ESE,109,1.1,1.1,86,0.26,-RA,,0.67,WeatherDisplay:10.37,2013-07-04 11:31:00,
2013-07-04 07:36:00,67.6,63.3,30.11,South,177,0.0,0.0,86,0.22,-RA,,0.67,WeatherDisplay:10.37,2013-07-04 11:36:00,
2013-07-04 07:41:00,67.6,63.3,30.11,SSW,199,0.0,0.0,86,0.27,-RA,,0.71,WeatherDisplay:10.37,2013-07-04 11:41:00,
2013-07-04 07:46:00,67.6,63.3,30.11,ESE,109,1.2,2.3,86,0.27,-RA,,0.71,WeatherDisplay:10.37,2013-07-04 11:46:00,
2013-07-04 07:51:00,67.6,63.3,30.11,ESE,109,0.0,0.0,86,0.24,-RA,,0.71,WeatherDisplay:10.37,2013-07-04 11:51:00,
2013-07-04 07:56:00,67.6,63.3,30.11,WSW,245,0.0,0.0,86,0.24,-RA,,0.71,WeatherDisplay:10.37,2013-07-04 11:56:00,
2013-07-04 08:01:00,67.8,63.5,30.11,ENE,65,0.0,0.0,86,0.24,-RA,,0.71,WeatherDisplay:10.37,2013-07-04 12:01:00,
2013-07-04 08:06:00,67.8,63.5,30.11,SW,222,0.0,0.0,86,0.20,-RA,,0.75,WeatherDisplay:10.37,2013-07-04 12:06:00,
2013-07-04 08:11:00,67.6,63.3,30.11,SE,132,0.0,0.0,86,0.20,-RA,,0.75,WeatherDisplay:10.37,2013-07-04 12:11:00,
2013-07-04 08:16:00,67.8,63.5,30.11,SE,132,0.3,1.1,86,0.16,-RA,,0.79,WeatherDisplay:10.37,2013-07-04 12:16:00,
2013-07-04 08:21:00,67.8,63.8,30.11,SSW,199,0.0,0.0,87,0.16,-RA,,0.79,WeatherDisplay:10.37,2013-07-04 12:21:00,
2013-07-04 08:26:00,67.8,63.8,30.11,SE,132,0.0,0.0,87,0.12,-RA,,0.79,WeatherDisplay:10.37,2013-07-04 12:26:00,
2013-07-04 08:31:00,67.8,63.8,30.11,SE,132,0.0,0.0,87,0.12,-RA,,0.81,WeatherDisplay:10.37,2013-07-04 12:31:00,
2013-07-04 08:36:00,68.0,64.0,30.11,ESE,109,1.6,1.6,87,0.14,-RA,,0.81,WeatherDisplay:10.37,2013-07-04 12:36:00,
2013-07-04 08:41:00,68.2,64.2,30.11,SE,132,0.0,0.0,87,0.10,-RA,,0.81,WeatherDisplay:10.37,2013-07-04 12:41:00,
2013-07-04 08:46:00,68.4,64.3,30.11,ESE,109,1.8,2.3,87,0.10,-RA,,0.81,WeatherDisplay:10.37,2013-07-04 12:46:00,
2013-07-04 08:51:00,68.5,64.5,30.11,South,177,1.5,2.3,87,0.14,-RA,,0.86,WeatherDisplay:10.37,2013-07-04 12:51:00,
2013-07-04 08:56:00,68.7,64.7,30.11,SE,132,0.0,1.1,87,0.14,-RA,,0.86,WeatherDisplay:10.37,2013-07-04 12:56:00,
2013-07-04 09:01:00,69.1,64.7,30.11,South,177,1.9,3.6,86,0.14,-RA,,0.86,WeatherDisplay:10.37,2013-07-04 13:01:00,
2013-07-04 09:06:00,68.9,64.5,30.11,SSW,199,0.0,1.1,86,0.10,-RA,,0.86,WeatherDisplay:10.37,2013-07-04 13:06:00,
2013-07-04 09:11:00,68.7,64.4,30.11,SW,222,1.1,2.3,86,0.10,OVC,,0.86,WeatherDisplay:10.37,2013-07-04 13:11:00,
2013-07-04 09:16:00,68.7,64.4,30.11,South,177,1.3,2.0,86,0.06,OVC,,0.86,WeatherDisplay:10.37,2013-07-04 13:16:00,
2013-07-04 09:21:00,68.7,64.0,30.11,SSE,155,2.0,2.3,85,0.06,OVC,,0.86,WeatherDisplay:10.37,2013-07-04 13:21:00,
2013-07-04 09:26:00,68.7,64.4,30.11,ESE,109,2.9,3.5,86,0.06,OVC,,0.86,WeatherDisplay:10.37,2013-07-04 13:26:00,
2013-07-04 09:31:00,68.5,64.2,30.11,SSW,199,2.8,4.6,86,0.10,RA,,0.94,WeatherDisplay:10.37,2013-07-04 13:31:00,
2013-07-04 09:36:00,68.7,64.4,30.11,South,177,0.0,0.0,86,0.12,RA,,0.94,WeatherDisplay:10.37,2013-07-04 13:36:00,
2013-07-04 09:41:00,68.7,64.4,30.11,South,177,1.8,2.3,86,0.18,RA,,1.00,WeatherDisplay:10.37,2013-07-04 13:41:00,
2013-07-04 09:46:00,69.1,64.7,30.11,East,87,0.0,0.0,86,0.18,RA,,1.00,WeatherDisplay:10.37,2013-07-04 13:46:00,
2013-07-04 09:51:00,69.3,64.9,30.11,West,267,0.0,0.0,86,0.14,OVC,,1.00,WeatherDisplay:10.37,2013-07-04 13:51:00,
2013-07-04 09:56:00,69.4,65.1,30.11,WSW,245,0.0,0.0,86,0.14,OVC,,1.00,WeatherDisplay:10.37,2013-07-04 13:56:00,
2013-07-04 10:01:00,69.6,64.9,30.11,South,177,1.0,2.5,85,0.16,RA,,1.02,WeatherDisplay:10.37,2013-07-04 14:01:00,
2013-07-04 10:06:00,69.6,65.2,30.11,SSE,155,0.0,1.1,86,0.20,RA,,1.06,WeatherDisplay:10.37,2013-07-04 14:06:00,
2013-07-04 10:11:00,70.0,65.3,30.11,SSE,155,0.0,0.0,85,0.20,-RA,,1.06,WeatherDisplay:10.37,2013-07-04 14:11:00,
2013-07-04 10:16:00,70.3,65.6,30.11,WSW,245,0.9,1.1,85,0.20,-RA,,1.06,WeatherDisplay:10.37,2013-07-04 14:16:00,
2013-07-04 10:21:00,70.3,65.6,30.11,SSW,199,0.0,0.0,85,0.20,-RA,,1.06,WeatherDisplay:10.37,2013-07-04 14:21:00,
2013-07-04 10:26:00,70.5,65.4,30.11,SSW,199,2.7,2.7,84,0.20,-RA,,1.06,WeatherDisplay:10.37,2013-07-04 14:26:00,
2013-07-04 10:31:00,70.5,65.4,30.11,SSW,199,0.0,0.0,84,0.16,-RA,,1.06,WeatherDisplay:10.37,2013-07-04 14:31:00,
2013-07-04 10:36:00,70.3,65.3,30.11,SSE,155,0.7,2.5,84,0.12,-RA,,1.06,WeatherDisplay:10.37,2013-07-04 14:36:00,
2013-07-04 10:41:00,70.3,65.3,30.11,SW,222,0.0,3.5,84,0.08,-RA,,1.08,WeatherDisplay:10.37,2013-07-04 14:41:00,
2013-07-04 10:46:00,70.3,65.3,30.12,SSE,155,0.0,0.0,84,0.08,-RA,,1.08,WeatherDisplay:10.37,2013-07-04 14:46:00,
2013-07-04 10:51:00,70.3,65.3,30.11,SSW,199,0.1,1.1,84,0.08,-RA,,1.08,WeatherDisplay:10.37,2013-07-04 14:51:00,
2013-07-04 10:56:00,70.2,65.1,30.12,ESE,109,0.0,0.0,84,0.08,-RA,,1.08,WeatherDisplay:10.37,2013-07-04 14:56:00,
2013-07-04 11:01:00,70.2,65.1,30.12,SSE,155,1.0,1.8,84,0.06,-RA,,1.08,WeatherDisplay:10.37,2013-07-04 15:01:00,
2013-07-04 11:06:00,70.2,65.1,30.12,South,177,0.9,1.1,84,0.02,-RA,,1.08,WeatherDisplay:10.37,2013-07-04 15:06:00,
2013-07-04 11:11:00,70.3,65.3,30.12,SW,222,0.0,0.0,84,0.06,-RA,,1.12,WeatherDisplay:10.37,2013-07-04 15:11:00,
2013-07-04 11:16:00,70.3,65.3,30.12,SE,132,0.0,0.0,84,0.06,-RA,,1.12,WeatherDisplay:10.37,2013-07-04 15:16:00,
2013-07-04 11:21:00,70.3,65.6,30.12,South,177,0.0,0.0,85,0.08,-RA,,1.14,WeatherDisplay:10.37,2013-07-04 15:21:00,
2013-07-04 11:26:00,70.2,65.1,30.12,SSW,199,0.0,0.0,84,0.12,-RA,,1.18,WeatherDisplay:10.37,2013-07-04 15:26:00,
2013-07-04 11:31:00,70.2,65.1,30.12,SW,222,0.0,0.0,84,0.12,-RA,,1.18,WeatherDisplay:10.37,2013-07-04 15:31:00,
2013-07-04 11:36:00,70.2,65.1,30.12,SSE,155,1.3,1.3,84,0.14,-RA,,1.20,WeatherDisplay:10.37,2013-07-04 15:36:00,
2013-07-04 11:41:00,70.2,65.1,30.12,SE,132,1.1,0.0,84,0.12,-RA,,1.20,WeatherDisplay:10.37,2013-07-04 15:41:00,
2013-07-04 11:46:00,70.0,64.9,30.12,SE,132,4.2,4.6,84,0.14,-RA,,1.22,WeatherDisplay:10.37,2013-07-04 15:46:00,
2013-07-04 11:51:00,70.0,64.9,30.11,SE,132,0.0,0.0,84,0.14,-RA,,1.22,WeatherDisplay:10.37,2013-07-04 15:51:00,
2013-07-04 11:56:00,70.0,64.9,30.11,SE,132,0.0,0.0,84,0.14,-RA,,1.22,WeatherDisplay:10.37,2013-07-04 15:56:00,
2013-07-04 12:01:00,70.2,65.4,30.11,SSW,199,1.3,1.3,85,0.20,-RA,,1.28,WeatherDisplay:10.37,2013-07-04 16:01:00,
2013-07-04 12:06:00,70.2,65.4,30.11,SW,222,1.3,1.3,85,0.20,-RA,,1.28,WeatherDisplay:10.37,2013-07-04 16:06:00,
2013-07-04 12:11:00,70.0,65.3,30.11,South,177,1.3,1.3,85,0.16,-RA,,1.28,WeatherDisplay:10.37,2013-07-04 16:11:00,
2013-07-04 12:16:00,70.0,65.3,30.11,SSE,155,1.6,1.6,85,0.18,-RA,,1.30,WeatherDisplay:10.37,2013-07-04 16:16:00,
2013-07-04 12:21:00,70.0,65.3,30.11,SSE,155,1.6,1.6,85,0.16,-RA,,1.30,WeatherDisplay:10.37,2013-07-04 16:21:00,
2013-07-04 12:26:00,70.3,65.6,30.11,SSE,155,1.3,1.3,85,0.12,-RA,,1.30,WeatherDisplay:10.37,2013-07-04 16:26:00,
2013-07-04 12:31:00,70.3,65.6,30.11,SW,222,1.6,0.0,85,0.12,-RA,,1.30,WeatherDisplay:10.37,2013-07-04 16:31:00,
2013-07-04 12:36:00,70.3,65.6,30.11,SW,222,0.0,0.0,85,0.10,-RA,,1.30,WeatherDisplay:10.37,2013-07-04 16:36:00,
2013-07-04 12:41:00,70.3,65.6,30.11,SW,222,0.0,0.0,85,0.10,-RA,,1.30,WeatherDisplay:10.37,2013-07-04 16:41:00,
2013-07-04 12:46:00,70.3,65.6,30.11,SSE,155,0.0,0.0,85,0.08,-RA,,1.30,WeatherDisplay:10.37,2013-07-04 16:46:00,
2013-07-04 12:51:00,70.3,65.6,30.11,ESE,109,0.0,1.1,85,0.08,-RA,,1.30,WeatherDisplay:10.37,2013-07-04 16:51:00,
2013-07-04 12:56:00,70.0,65.3,30.11,ESE,109,1.6,1.6,85,0.08,-RA,,1.30,WeatherDisplay:10.37,2013-07-04 16:56:00,
2013-07-04 13:01:00,69.8,65.1,30.11,WNW,289,0.0,0.0,85,0.02,-RA,,1.30,WeatherDisplay:10.37,2013-07-04 17:01:00,
2013-07-04 13:06:00,69.8,65.1,30.11,SSE,155,0.0,0.0,85,0.02,-RA,,1.30,WeatherDisplay:10.37,2013-07-04 17:06:00,
2013-07-04 13:11:00,70.0,65.3,30.11,SSW,199,0.0,0.0,85,0.02,-RA,,1.30,WeatherDisplay:10.37,2013-07-04 17:11:00,
2013-07-04 13:16:00,70.0,65.3,30.11,SSE,155,0.0,0.0,85,0.00,-RA,,1.30,WeatherDisplay:10.37,2013-07-04 17:16:00,
2013-07-04 13:21:00,70.0,65.3,30.11,SSE,155,0.0,0.0,85,0.00,-RA,,1.30,WeatherDisplay:10.37,2013-07-04 17:21:00,
2013-07-04 13:26:00,70.5,65.8,30.11,SW,222,0.0,3.5,85,0.02,-RA,,1.32,WeatherDisplay:10.37,2013-07-04 17:26:00,
2013-07-04 13:31:00,70.5,65.8,30.11,ENE,65,0.0,0.0,85,0.02,-RA,,1.32,WeatherDisplay:10.37,2013-07-04 17:31:00,
2013-07-04 13:36:00,70.3,65.6,30.11,NE,42,0.0,0.0,85,0.04,-RA,,1.34,WeatherDisplay:10.37,2013-07-04 17:36:00,
2013-07-04 13:41:00,70.5,65.8,30.11,SSW,199,0.1,3.5,85,0.04,-RA,,1.34,WeatherDisplay:10.37,2013-07-04 17:41:00,
2013-07-04 13:46:00,70.7,66.0,30.11,SW,222,1.8,2.5,85,0.04,-RA,,1.34,WeatherDisplay:10.37,2013-07-04 17:46:00,
2013-07-04 13:51:00,70.9,66.1,30.11,South,177,0.0,1.6,85,0.04,-RA,,1.34,WeatherDisplay:10.37,2013-07-04 17:51:00,
2013-07-04 13:56:00,70.9,66.1,30.11,SSE,155,0.0,0.0,85,0.04,-RA,,1.34,WeatherDisplay:10.37,2013-07-04 17:56:00,
2013-07-04 14:01:00,70.9,65.8,30.11,SE,132,1.3,4.9,84,0.04,-RA,,1.34,WeatherDisplay:10.37,2013-07-04 18:01:00,
2013-07-04 14:06:00,70.9,65.8,30.11,South,177,1.3,3.5,84,0.04,-RA,,1.34,WeatherDisplay:10.37,2013-07-04 18:06:00,
2013-07-04 14:11:00,71.1,66.0,30.11,West,267,1.1,1.1,84,0.04,-RA,,1.34,WeatherDisplay:10.37,2013-07-04 18:11:00,
2013-07-04 14:16:00,71.1,65.6,30.12,SE,132,3.7,4.6,83,0.04,-RA,,1.34,WeatherDisplay:10.37,2013-07-04 18:16:00,
2013-07-04 14:21:00,71.2,65.8,30.12,SSW,199,3.6,3.6,83,0.04,-RA,,1.34,WeatherDisplay:10.37,2013-07-04 18:21:00,
2013-07-04 14:26:00,71.2,65.8,30.11,SSE,155,5.1,5.1,83,0.02,-RA,,1.34,WeatherDisplay:10.37,2013-07-04 18:26:00,
2013-07-04 14:31:00,71.1,65.6,30.11,SSW,199,5.0,6.9,83,0.02,-RA,,1.38,WeatherDisplay:10.37,2013-07-04 18:31:00,
2013-07-04 14:36:00,70.9,65.1,30.11,SSW,199,2.8,3.5,82,0.04,-RA,,1.38,WeatherDisplay:10.37,2013-07-04 18:36:00,
2013-07-04 14:41:00,70.7,64.9,30.11,SSW,199,2.6,3.5,82,0.04,-RA,,1.38,WeatherDisplay:10.37,2013-07-04 18:41:00,
2013-07-04 14:46:00,70.9,65.5,30.11,WSW,245,0.0,0.0,83,0.04,-RA,,1.38,WeatherDisplay:10.37,2013-07-04 18:46:00,
2013-07-04 14:51:00,70.9,65.5,30.11,SSW,199,0.0,0.0,83,0.08,-RA,,1.42,WeatherDisplay:10.37,2013-07-04 18:51:00,
2013-07-04 14:56:00,70.9,65.5,30.09,SE,132,0.0,1.6,83,0.08,-RA,,1.42,WeatherDisplay:10.37,2013-07-04 18:56:00,
2013-07-04 15:01:00,70.9,65.1,30.10,South,177,3.1,3.5,82,0.08,-RA,,1.42,WeatherDisplay:10.37,2013-07-04 19:01:00,
2013-07-04 15:06:00,70.9,65.1,30.10,South,177,0.3,2.3,82,0.08,-RA,,1.42,WeatherDisplay:10.37,2013-07-04 19:06:00,
2013-07-04 15:11:00,70.9,65.1,30.10,South,177,4.0,4.0,82,0.12,-RA,,1.47,WeatherDisplay:10.37,2013-07-04 19:11:00,
2013-07-04 15:16:00,70.9,65.1,30.10,South,177,2.3,3.5,82,0.16,-RA,,1.51,WeatherDisplay:10.37,2013-07-04 19:16:00,
2013-07-04 15:21:00,70.7,64.9,30.10,SSW,199,0.9,3.5,82,0.16,-RA,,1.51,WeatherDisplay:10.37,2013-07-04 19:21:00,
2013-07-04 15:26:00,70.5,64.8,30.09,South,177,4.2,4.6,82,0.16,-RA,,1.51,WeatherDisplay:10.37,2013-07-04 19:26:00,
2013-07-04 15:31:00,70.3,64.6,30.09,SE,132,2.3,3.5,82,0.16,-RA,,1.51,WeatherDisplay:10.37,2013-07-04 19:31:00,
2013-07-04 15:36:00,70.3,64.6,30.09,SSE,155,3.1,3.5,82,0.12,-RA,,1.51,WeatherDisplay:10.37,2013-07-04 19:36:00,
2013-07-04 15:41:00,70.2,64.4,30.09,SW,222,0.0,0.0,82,0.12,-RA,,1.51,WeatherDisplay:10.37,2013-07-04 19:41:00,
2013-07-04 15:46:00,70.2,64.4,30.09,SE,132,0.0,0.0,82,0.12,-RA,,1.51,WeatherDisplay:10.37,2013-07-04 19:46:00,
2013-07-04 15:51:00,70.3,64.9,30.09,SSE,155,0.4,1.1,83,0.12,-RA,,1.55,WeatherDisplay:10.37,2013-07-04 19:51:00,
2013-07-04 15:56:00,70.3,64.9,30.08,ESE,109,0.1,1.1,83,0.12,-RA,,1.55,WeatherDisplay:10.37,2013-07-04 19:56:00,
2013-07-04 16:01:00,70.3,64.9,30.08,SSW,199,0.0,1.3,83,0.12,-RA,,1.55,WeatherDisplay:10.37,2013-07-04 20:01:00,
2013-07-04 16:06:00,70.3,64.6,30.08,SSE,155,0.0,2.3,82,0.12,-RA,,1.55,WeatherDisplay:10.37,2013-07-04 20:06:00,
2013-07-04 16:11:00,70.2,64.8,30.06,South,177,0.0,1.1,83,0.08,-RA,,1.55,WeatherDisplay:10.37,2013-07-04 20:11:00,
2013-07-04 16:16:00,70.0,64.2,30.07,ESE,109,1.1,2.9,82,0.04,-RA,,1.55,WeatherDisplay:10.37,2013-07-04 20:16:00,
2013-07-04 16:21:00,70.0,64.6,30.06,SE,132,0.0,1.3,83,0.04,-RA,,1.55,WeatherDisplay:10.37,2013-07-04 20:21:00,
2013-07-04 16:26:00,70.0,64.6,30.06,SSE,155,0.0,0.0,83,0.04,-RA,,1.55,WeatherDisplay:10.37,2013-07-04 20:26:00,
2013-07-04 16:31:00,70.0,64.6,30.07,South,177,0.0,0.0,83,0.04,-RA,,1.55,WeatherDisplay:10.37,2013-07-04 20:31:00,
2013-07-04 16:36:00,70.2,64.8,30.07,SSW,199,0.0,1.1,83,0.04,-RA,,1.55,WeatherDisplay:10.37,2013-07-04 20:36:00,
2013-07-04 16:41:00,70.3,64.9,30.07,ESE,109,0.0,3.4,83,0.04,-RA,,1.55,WeatherDisplay:10.37,2013-07-04 20:41:00,
2013-07-04 16:46:00,70.2,64.8,30.08,SE,132,4.2,4.6,83,0.04,-RA,,1.55,WeatherDisplay:10.37,2013-07-04 20:46:00,
2013-07-04 16:51:00,70.2,64.8,30.08,SSW,199,0.0,0.0,83,0.00,-RA,,1.55,WeatherDisplay:10.37,2013-07-04 20:51:00,
2013-07-04 16:56:00,69.8,64.4,30.08,South,177,0.9,1.1,83,0.00,-RA,,1.55,WeatherDisplay:10.37,2013-07-04 20:56:00,
2013-07-04 17:01:00,69.8,64.4,30.07,South,177,0.4,4.6,83,0.00,-RA,,1.55,WeatherDisplay:10.37,2013-07-04 21:01:00,
2013-07-04 17:06:00,69.4,64.0,30.07,SW,222,0.7,3.5,83,0.00,-RA,,1.55,WeatherDisplay:10.37,2013-07-04 21:06:00,
2013-07-04 17:11:00,69.1,63.7,30.07,SE,132,1.1,3.5,83,0.00,-RA,,1.55,WeatherDisplay:10.37,2013-07-04 21:11:00,
2013-07-04 17:16:00,68.9,63.9,30.07,South,177,0.4,2.3,84,0.04,-RA,,1.59,WeatherDisplay:10.37,2013-07-04 21:16:00,
2013-07-04 17:21:00,68.9,63.9,30.07,South,177,0.0,1.1,84,0.04,-RA,,1.59,WeatherDisplay:10.37,2013-07-04 21:21:00,
2013-07-04 17:26:00,68.9,63.9,30.07,South,177,0.0,0.0,84,0.04,-RA,,1.59,WeatherDisplay:10.37,2013-07-04 21:26:00,
2013-07-04 17:31:00,68.7,63.7,30.07,NW,312,0.0,0.0,84,0.04,-RA,,1.59,WeatherDisplay:10.37,2013-07-04 21:31:00,
2013-07-04 17:36:00,68.9,63.9,30.07,SSE,155,0.0,0.0,84,0.04,-RA,,1.59,WeatherDisplay:10.37,2013-07-04 21:36:00,
2013-07-04 17:41:00,68.7,63.7,30.07,SSW,199,0.0,3.5,84,0.04,-RA,,1.59,WeatherDisplay:10.37,2013-07-04 21:41:00,
2013-07-04 17:46:00,69.1,64.0,30.07,SW,222,0.0,0.0,84,0.08,-RA,,1.63,WeatherDisplay:10.37,2013-07-04 21:46:00,
2013-07-04 17:51:00,69.1,64.0,30.07,SSE,155,0.0,0.0,84,0.08,-RA,,1.63,WeatherDisplay:10.37,2013-07-04 21:51:00,
2013-07-04 17:56:00,69.3,64.2,30.08,South,177,1.1,1.1,84,0.12,-RA,,1.67,WeatherDisplay:10.37,2013-07-04 21:56:00,
2013-07-04 18:01:00,69.3,63.9,30.08,South,177,1.4,3.5,83,0.12,-RA,,1.67,WeatherDisplay:10.37,2013-07-04 22:01:00,
2013-07-04 18:06:00,69.4,64.0,30.07,WSW,245,0.0,0.0,83,0.12,-RA,,1.67,WeatherDisplay:10.37,2013-07-04 22:06:00,
2013-07-04 18:11:00,69.4,64.0,30.07,WSW,245,0.0,1.1,83,0.12,-RA,,1.67,WeatherDisplay:10.37,2013-07-04 22:11:00,
2013-07-04 18:16:00,69.4,64.0,30.07,SSE,155,0.0,0.0,83,0.08,-RA,,1.67,WeatherDisplay:10.37,2013-07-04 22:16:00,
2013-07-04 18:21:00,69.4,64.4,30.07,WSW,245,0.0,0.0,84,0.08,-RA,,1.67,WeatherDisplay:10.37,2013-07-04 22:21:00,
2013-07-04 18:27:00,69.1,64.0,30.07,South,177,0.0,0.0,84,0.08,-RA,,1.67,WeatherDisplay:10.37,2013-07-04 22:27:00,
2013-07-04 18:32:00,69.1,64.0,30.07,South,177,0.0,0.0,84,0.08,-RA,,1.67,WeatherDisplay:10.37,2013-07-04 22:32:00,
2013-07-04 18:37:00,69.1,64.0,30.07,SSE,155,0.0,0.0,84,0.08,-RA,,1.67,WeatherDisplay:10.37,2013-07-04 22:37:00,
2013-07-04 18:42:00,69.3,64.2,30.07,SSW,199,2.1,3.5,84,0.12,-RA,,1.71,WeatherDisplay:10.37,2013-07-04 22:42:00,
2013-07-04 18:47:00,69.1,64.0,30.08,SSE,155,0.0,0.0,84,0.08,-RA,,1.71,WeatherDisplay:10.37,2013-07-04 22:47:00,
2013-07-04 18:52:00,68.7,63.7,30.09,WSW,245,3.6,6.3,84,0.08,-RA,,1.71,WeatherDisplay:10.37,2013-07-04 22:52:00,
2013-07-04 18:57:00,68.7,64.0,30.10,South,177,0.7,1.1,85,0.04,-RA,,1.71,WeatherDisplay:10.37,2013-07-04 22:57:00,
2013-07-04 19:02:00,68.5,63.8,30.09,WSW,245,1.6,1.6,85,0.04,-RA,,1.71,WeatherDisplay:10.37,2013-07-04 23:02:00,
2013-07-04 19:07:00,68.2,63.5,30.09,WNW,289,2.2,2.3,85,0.04,-RA,,1.71,WeatherDisplay:10.37,2013-07-04 23:07:00,
2013-07-04 19:12:00,68.2,63.5,30.08,SSW,199,0.0,0.0,85,0.04,BKN,,1.71,WeatherDisplay:10.37,2013-07-04 23:12:00,
2013-07-04 19:17:00,68.0,63.3,30.08,WSW,245,0.0,1.1,85,0.08,RA,,1.75,WeatherDisplay:10.37,2013-07-04 23:17:00,
2013-07-04 19:22:00,67.8,63.5,30.09,West,267,2.0,2.5,86,0.08,RA,,1.75,WeatherDisplay:10.37,2013-07-04 23:22:00,
2013-07-04 19:27:00,67.8,63.5,30.09,West,267,0.9,2.3,86,0.08,BKN,,1.75,WeatherDisplay:10.37,2013-07-04 23:27:00,
2013-07-04 19:32:00,67.8,63.5,30.09,WSW,245,0.0,0.0,86,0.08,BKN,,1.75,WeatherDisplay:10.37,2013-07-04 23:32:00,
2013-07-04 19:37:00,67.6,63.3,30.09,SW,222,3.4,3.5,86,0.08,BKN,,1.75,WeatherDisplay:10.37,2013-07-04 23:37:00,
2013-07-04 19:42:00,67.6,63.3,30.10,West,267,2.4,2.9,86,0.04,BKN,,1.75,WeatherDisplay:10.37,2013-07-04 23:42:00,
2013-07-04 19:47:00,67.5,63.1,30.09,WSW,245,0.0,0.0,86,0.04,BKN,,1.75,WeatherDisplay:10.37,2013-07-04 23:47:00,
2013-07-04 19:52:00,67.6,63.3,30.09,SSE,155,0.4,0.7,86,0.04,BKN,,1.75,WeatherDisplay:10.37,2013-07-04 23:52:00,
2013-07-04 19:57:00,67.5,63.1,30.08,ENE,65,0.0,0.0,86,0.04,BKN,,1.75,WeatherDisplay:10.37,2013-07-04 23:57:00,
2013-07-04 20:02:00,67.3,62.9,30.07,East,87,0.0,0.0,86,0.04,BKN,,1.75,WeatherDisplay:10.37,2013-07-05 00:02:00,
2013-07-04 20:07:00,67.3,62.9,30.07,West,267,0.0,0.0,86,0.04,BKN,,1.75,WeatherDisplay:10.37,2013-07-05 00:07:00,
2013-07-04 20:12:00,67.1,62.8,30.08,South,177,0.0,1.1,86,0.04,SCT,,1.75,WeatherDisplay:10.37,2013-07-05 00:12:00,
2013-07-04 20:17:00,67.1,62.8,30.08,SE,132,0.0,0.0,86,0.00,SCT,,1.75,WeatherDisplay:10.37,2013-07-05 00:17:00,
2013-07-04 20:22:00,66.9,62.6,30.07,ESE,109,1.8,2.3,86,0.00,SCT,,1.75,WeatherDisplay:10.37,2013-07-05 00:22:00,
2013-07-04 20:27:00,67.1,62.8,30.07,South,177,0.0,0.0,86,0.00,SCT,,1.75,WeatherDisplay:10.37,2013-07-05 00:27:00,
2013-07-04 20:32:00,66.9,62.6,30.07,WSW,245,0.0,0.0,86,0.00,SCT,,1.75,WeatherDisplay:10.37,2013-07-05 00:32:00,
2013-07-04 20:37:00,66.7,62.4,30.06,East,87,1.9,3.8,86,0.00,SCT,,1.75,WeatherDisplay:10.37,2013-07-05 00:37:00,
2013-07-04 20:42:00,66.7,62.7,30.07,SW,222,0.9,1.1,87,0.00,SCT,,1.75,WeatherDisplay:10.37,2013-07-05 00:42:00,
2013-07-04 20:47:00,66.6,62.6,30.07,South,177,4.5,4.6,87,0.00,SCT,,1.75,WeatherDisplay:10.37,2013-07-05 00:47:00,
2013-07-04 20:52:00,66.6,62.6,30.08,SSE,155,2.0,2.3,87,0.00,SCT,,1.75,WeatherDisplay:10.37,2013-07-05 00:52:00,
2013-07-04 20:57:00,66.4,62.4,30.07,SW,222,0.0,0.0,87,0.04,RA,,1.79,WeatherDisplay:10.37,2013-07-05 00:57:00,
2013-07-04 21:02:00,66.2,62.2,30.07,SSW,199,0.0,0.0,87,0.04,RA,,1.79,WeatherDisplay:10.37,2013-07-05 01:02:00,
2013-07-04 21:07:00,66.0,62.0,30.06,ESE,109,0.0,0.0,87,0.04,SCT,,1.79,WeatherDisplay:10.37,2013-07-05 01:07:00,
2013-07-04 21:12:00,66.0,62.0,30.06,SSE,155,0.0,0.0,87,0.04,CLR,,1.79,WeatherDisplay:10.37,2013-07-05 01:12:00,
2013-07-04 21:17:00,66.0,62.0,30.06,SSE,155,0.0,0.0,87,0.04,CLR,,1.79,WeatherDisplay:10.37,2013-07-05 01:17:00,
2013-07-04 21:22:00,65.8,61.9,30.06,SE,132,1.4,1.4,87,0.04,CLR,,1.79,WeatherDisplay:10.37,2013-07-05 01:22:00,
2013-07-04 21:27:00,65.8,61.9,30.06,SSW,199,0.0,0.0,87,0.04,CLR,,1.79,WeatherDisplay:10.37,2013-07-05 01:27:00,
2013-07-04 21:32:00,65.7,61.7,30.06,SW,222,2.0,2.3,87,0.04,CLR,,1.79,WeatherDisplay:10.37,2013-07-05 01:32:00,
2013-07-04 21:37:00,65.5,61.5,30.06,East,87,0.3,2.2,87,0.04,CLR,,1.79,WeatherDisplay:10.37,2013-07-05 01:37:00,
2013-07-04 21:42:00,65.5,61.5,30.06,SE,132,0.9,1.1,87,0.04,CLR,,1.79,WeatherDisplay:10.37,2013-07-05 01:42:00,
2013-07-04 21:48:00,65.5,61.5,30.06,South,177,0.0,2.3,87,0.04,CLR,,1.79,WeatherDisplay:10.37,2013-07-05 01:48:00,
2013-07-04 21:53:00,65.3,61.3,30.05,SE,132,1.4,2.7,87,0.04,CLR,,1.79,WeatherDisplay:10.37,2013-07-05 01:53:00,
2013-07-04 21:58:00,65.3,61.3,30.05,SSE,155,0.0,0.0,87,0.00,CLR,,1.79,WeatherDisplay:10.37,2013-07-05 01:58:00,
2013-07-04 22:03:00,65.1,61.2,30.06,SSW,199,0.7,1.1,87,0.00,CLR,,1.79,WeatherDisplay:10.37,2013-07-05 02:03:00,
2013-07-04 22:08:00,65.1,61.2,30.07,SW,222,0.2,1.6,87,0.00,CLR,,1.79,WeatherDisplay:10.37,2013-07-05 02:08:00,
2013-07-04 22:13:00,65.1,61.2,30.07,SW,222,1.8,2.3,87,0.00,FEW,,1.79,WeatherDisplay:10.37,2013-07-05 02:13:00,
2013-07-04 22:18:00,64.9,61.0,30.08,SSW,199,1.1,3.1,87,0.00,FEW,,1.79,WeatherDisplay:10.37,2013-07-05 02:18:00,
2013-07-04 22:23:00,64.9,61.0,30.07,East,87,0.0,0.0,87,0.00,FEW,,1.79,WeatherDisplay:10.37,2013-07-05 02:23:00,
2013-07-04 22:28:00,64.9,61.0,30.06,ENE,65,2.0,2.3,87,0.00,FEW,,1.79,WeatherDisplay:10.37,2013-07-05 02:28:00,
2013-07-04 22:33:00,64.9,61.0,30.06,SSE,155,0.3,1.6,87,0.00,FEW,,1.79,WeatherDisplay:10.37,2013-07-05 02:33:00,
2013-07-04 22:38:00,64.8,60.8,30.07,SSW,199,0.0,0.0,87,0.00,FEW,,1.79,WeatherDisplay:10.37,2013-07-05 02:38:00,
2013-07-04 22:43:00,64.8,60.8,30.07,SSW,199,0.0,0.0,87,0.00,FEW,,1.79,WeatherDisplay:10.37,2013-07-05 02:43:00,
2013-07-04 22:48:00,64.8,60.8,30.07,SSE,155,0.6,1.1,87,0.00,FEW,,1.79,WeatherDisplay:10.37,2013-07-05 02:48:00,
2013-07-04 22:53:00,64.8,60.8,30.08,South,177,0.2,1.1,87,0.00,FEW,,1.79,WeatherDisplay:10.37,2013-07-05 02:53:00,
2013-07-04 22:58:00,64.8,60.8,30.08,WSW,245,0.0,0.0,87,0.00,FEW,,1.79,WeatherDisplay:10.37,2013-07-05 02:58:00,
2013-07-04 23:03:00,64.6,60.6,30.08,SE,132,0.0,0.0,87,0.00,FEW,,1.79,WeatherDisplay:10.37,2013-07-05 03:03:00,
2013-07-04 23:08:00,64.6,60.6,30.07,SE,132,0.0,0.0,87,0.00,SCT,,1.79,WeatherDisplay:10.37,2013-07-05 03:08:00,
2013-07-04 23:13:00,64.6,60.6,30.07,WNW,289,0.0,0.0,87,0.00,SCT,,1.79,WeatherDisplay:10.37,2013-07-05 03:13:00,
2013-07-04 23:18:00,64.6,60.9,30.08,SE,132,1.5,1.5,88,0.00,SCT,,1.79,WeatherDisplay:10.37,2013-07-05 03:18:00,
2013-07-04 23:23:00,64.6,60.9,30.07,ENE,65,0.2,2.3,88,0.00,SCT,,1.79,WeatherDisplay:10.37,2013-07-05 03:23:00,
2013-07-04 23:28:00,64.6,60.9,30.07,ENE,65,0.0,0.0,88,0.00,SCT,,1.79,WeatherDisplay:10.37,2013-07-05 03:28:00,
2013-07-04 23:33:00,64.6,60.9,30.08,SW,222,0.6,2.3,88,0.00,SCT,,1.79,WeatherDisplay:10.37,2013-07-05 03:33:00,
2013-07-04 23:38:00,64.6,60.9,30.08,North,357,0.0,0.0,88,0.00,SCT,,1.79,WeatherDisplay:10.37,2013-07-05 03:38:00,
2013-07-04 23:43:00,64.6,60.9,30.09,WSW,245,2.0,2.3,88,0.00,SCT,,1.79,WeatherDisplay:10.37,2013-07-05 03:43:00,
2013-07-04 23:48:00,64.6,60.9,30.09,SSW,199,2.9,3.5,88,0.00,SCT,,1.79,WeatherDisplay:10.37,2013-07-05 03:48:00,
2013-07-04 23:53:00,64.6,60.9,30.09,SSE,155,0.0,1.1,88,0.00,SCT,,1.79,WeatherDisplay:10.37,2013-07-05 03:53:00,
2013-07-04 23:58:00,64.6,60.9,30.09,West,267,2.5,2.5,88,0.00,SCT,,1.79,WeatherDisplay:10.37,2013-07-05 03:58:00,